Left ArrowRight Arrow

34.74481, -87.66753

Hourly Observations for August 18, 2016

Temp ( °F °C ) Dew Point ( °F °C ) Humidity (%) Winds ( mph kmh ) Pressure ( in mb ) Visibility ( mi km ) Precip ( " mm )
12:53 am 00:53 Mostly Cloudy 76 24.4 73 22.8 91 91 Calm 30.14 1021 10 16 0.00 0.00
1:53 am 01:53 Partly Cloudy 76 24.4 73 22.8 91 91 Calm 30.12 1020 10 16 0.00 0.00
2:53 am 02:53 Mostly Clear 76 24.4 73 22.8 91 91 Calm 30.11 1020 10 16 0.00 0.00
3:53 am 03:53 Partly Cloudy 76 24.4 72 22.2 88 88 Calm 30.11 1020 10 16 0.00 0.00
4:53 am 04:53 Clear 76 24.4 72 22.2 88 88 NNW 6 9 30.11 1020 10 16 0.00 0.00
5:53 am 05:53 Cloudy 77 25 72 22.2 85 85 Calm 30.13 1020 10 16 0.00 0.00
6:45 am 06:45 Cloudy with Light Rain 76 24.4 73 22.8 91 91 Calm 30.12 1020 3 4 0.04 1.02
6:53 am 06:53 Cloudy 76 24.4 73 22.8 91 91 Calm 30.13 1020 10 16 0.04 1.02
7:53 am 07:53 Mostly Cloudy 78 25.6 73 22.8 85 85 E 3 6 30.14 1021 10 16 0.00 0.00
8:53 am 08:53 Sunny 81 27.2 73 22.8 77 77 S 5 7 30.14 1021 10 16 0.00 0.00
9:50 am 09:50 Mostly Cloudy 86 30 75 24 70 70 NW 5 7 30.12 1020 10 16 0.00 0.00
9:53 am 09:53 Mostly Cloudy 85 29.4 75 23.9 72 72 NW 5 7 30.14 1021 10 16 0.00 0.00
10:04 am 10:04 Partly Cloudy 83 28.3 74 23.3 74 74 NNW 3 6 30.12 1020 10 16 0.00 0.00
10:53 am 10:53 Mostly Cloudy 87 30.6 73 22.8 63 63 VRB 3 6 30.13 1020 10 16 0.00 0.00
11:53 am 11:53 Partly Cloudy 85 29.4 73 22.8 68 68 NW 3 6 30.11 1020 10 16 0.00 0.00
12:53 pm 12:53 Mostly Cloudy 89 31.7 72 22.2 57 57 NW 5 7 30.10 1019 10 16 0.00 0.00
1:53 pm 13:53 Partly Cloudy 91 32.8 71 21.7 52 52 N 8 13 30.08 1019 10 16 0.00 0.00
2:53 pm 14:53 Partly Cloudy 90 32.2 71 21.7 54 54 NNW 9 15 30.05 1018 10 16 0.00 0.00
3:53 pm 15:53 Partly Cloudy 89 31.7 71 21.7 55 55 VRB 7 11 30.04 1017 10 16 0.00 0.00
4:53 pm 16:53 Cloudy 81 27.2 71 21.7 72 72 SSE 15 24 30.05 1018 10 16 0.00 0.00
5:53 pm 17:53 Sunny 81 27.2 72 22.2 74 74 E 8 13 30.06 1018 10 16 0.00 0.00
6:53 pm 18:53 Sunny 79 26.1 71 21.7 77 77 Calm 30.05 1018 10 16 0.00 0.00
7:53 pm 19:53 Clear 78 25.6 72 22.2 82 82 Calm 30.04 1017 10 16 0.00 0.00
8:53 pm 20:53 Clear 76 24.4 73 22.8 91 91 SE 5 7 30.07 1018 10 16 0.00 0.00
9:53 pm 21:53 Clear 76 24.4 72 22.2 88 88 Calm 30.07 1018 10 16 0.00 0.00
10:53 pm 22:53 Clear 75 23.9 72 22.2 90 90 Calm 30.07 1018 10 16 0.00 0.00
11:53 pm 23:53 Clear 75 23.9 72 22.2 90 90 Calm 30.07 1018 10 16 0.00 0.00

Powered by Vaisala Xweather